KTXEAGLE7 Weather Reports


time (UTC)temp
F
wind
direction
speed
knots
gust
knots
rain 1hr
in
rain 24hr
in
rain mn
in
humidity
%
barometer
mb
20260506044521 76 152 3.5 7.0 0.00 0.00 0.00 95 1009.8
20260506043020 76 143 2.6 5.2 0.00 0.00 0.00 95 1009.9
20260506041519 76 150 2.6 7.8 0.00 0.00 0.00 94 1009.8
20260506040019 76 144 6.1 10.4 0.00 0.00 0.00 94 1009.6
20260506034520 76 152 4.3 9.6 0.00 0.00 0.00 94 1009.6
20260506033018 76 135 5.2 8.7 0.00 0.00 0.00 94 1009.3
20260506031518 76 135 4.3 10.4 0.00 0.00 0.00 93 1008.9
20260506030017 76 170 7.0 13.0 0.00 0.00 0.00 93 1008.6
20260506024517 76 157 5.2 12.2 0.00 0.00 0.00 91 1008.6
20260506023031 77 170 6.1 9.6 0.00 0.00 0.00 91 1008.6
20260506021531 77 164 6.1 12.2 0.00 0.00 0.00 91 1008.5
20260506020014 77 162 5.2 10.4 0.00 0.00 0.00 91 1008.1
20260506014518 77 161 3.5 7.8 0.00 0.00 0.00 91 1007.9
20260506013015 77 162 4.3 7.8 0.00 0.00 0.00 90 1007.7
20260506011514 77 163 4.3 10.4 0.00 0.00 0.00 90 1007.6
20260506010014 78 157 6.1 10.4 0.00 0.00 0.00 89 1007.3
20260506004513 78 172 4.3 8.7 0.00 0.00 0.00 88 1007.3
20260506003014 78 160 7.0 13.0 0.00 0.00 0.00 87 1007.1
20260506001511 79 169 7.0 12.2 0.00 0.00 0.00 86 1007.0
20260506000012 79 151 5.2 14.8 0.00 0.00 0.00 86 1007.0
20260505234513 79 167 8.7 15.6 0.00 0.00 0.00 85 1006.9
20260505233009 79 188 8.7 18.2 0.00 0.00 0.00 84 1006.8
20260505231514 80 152 10.4 20.0 0.00 0.00 0.00 84 1006.8
20260505230020 80 178 10.4 20.0 0.00 0.00 0.00 84 1006.8
20260505224512 80 169 9.6 19.1 0.00 0.00 0.00 83 1006.8
20260505223006 80 185 8.7 17.4 0.00 0.00 0.00 84 1007.0
20260505221506 80 178 12.2 19.1 0.00 0.00 0.00 84 1007.1
20260505220004 80 149 8.7 16.5 0.00 0.00 0.00 85 1007.2
20260505214502 80 172 7.8 14.8 0.00 0.00 0.00 85 1007.6
20260505213101 80 189 11.3 18.2 0.00 0.00 0.00 84 1007.7
20260505211600 80 167 13.0 18.2 0.00 0.00 0.00 84 1007.7
20260505210058 80 184 10.4 19.1 0.00 0.00 0.00 84 1007.9
20260505204555 80 187 12.2 19.1 0.00 0.00 0.00 85 1008.2
20260505203112 80 196 14.8 21.7 0.00 0.00 0.00 84 1008.4
20260505201600 79 168 12.2 19.1 0.00 0.00 0.00 85 1008.7
20260505200054 80 180 11.3 18.2 0.00 0.00 0.00 86 1009.0
20260505194549 79 173 10.4 17.4 0.00 0.00 0.00 86 1008.9
20260505193048 79 183 10.4 16.5 0.00 0.00 0.00 87 1009.2
20260505191552 79 194 10.4 16.5 0.00 0.00 0.00 87 1009.3
20260505190044 79 184 8.7 13.0 0.00 0.00 0.00 88 1009.4
20260505184544 78 195 7.0 13.0 0.00 0.00 0.00 88 1009.3
20260505183043 79 179 7.0 16.5 0.00 0.00 0.00 89 1009.4
20260505181545 78 185 11.3 17.4 0.00 0.00 0.00 87 1009.5
20260505180041 78 196 8.7 18.2 0.00 0.00 0.00 87 1009.7
20260505174544 79 185 9.6 17.4 0.00 0.00 0.00 87 1010.0
20260505173039 78 178 9.6 15.6 0.00 0.00 0.00 88 1009.9
20260505171543 78 213 14.8 20.9 0.00 0.00 0.00 87 1010.0
20260505170040 77 203 14.8 20.9 0.00 0.00 0.00 88 1010.0
20260505164531 77 180 11.3 17.4 0.00 0.00 0.00 90 1010.0
20260505163033 77 198 8.7 14.8 0.00 0.00 0.00 91 1010.0
20260505161527 77 204 8.7 15.6 0.00 0.00 0.00 91 1009.9
20260505153021 76 194 9.6 16.5 0.00 0.00 0.00 93 1009.9
20260505151520 75 211 7.8 16.5 0.00 0.00 0.00 94 1009.8
20260505130106 71 182 6.1 8.7 0.00 0.00 0.00 99 1009.7
20260505124558 71 162 4.3 8.7 0.00 0.00 0.00 99 1009.7
20260505123056 70 179 2.6 6.1 0.00 0.00 0.00 99 1009.7
20260505121615 69 172 1.7 4.3 0.00 0.00 0.00 99 1009.2
20260505120053 69 182 3.5 5.2 0.00 0.00 0.00 99 1009.1
20260505114551 69 164 1.7 5.2 0.00 0.00 0.00 99 1008.9
20260505113050 69 156 1.7 4.3 0.00 0.00 0.00 99 1009.0
20260505111549 69 154 2.6 5.2 0.00 0.00 0.00 98 1008.8
20260505101554 68 178 2.6 5.2 0.00 0.00 0.00 98 1009.0
20260505100045 68 163 2.6 4.3 0.00 0.00 0.00 98 1008.8
20260505094543 69 163 1.7 4.3 0.00 0.00 0.00 97 1009.4
20260505093044 68 173 3.5 4.3 0.00 0.00 0.00 97 1009.4
20260505091542 68 164 0.9 2.6 0.00 0.00 0.00 97 1009.2
20260505090055 68 187 0.9 3.5 0.00 0.00 0.00 97 1009.4
20260505084548 68 187 2.6 5.2 0.00 0.00 0.00 97 1009.4
20260505083039 68 165 0.9 4.3 0.00 0.00 0.00 96 1009.7
20260505081542 68 192 0.9 3.5 0.00 0.00 0.00 96 1010.0
20260505080034 68 192 2.6 7.0 0.00 0.00 0.00 96 1010.0
20260505074535 68 172 3.5 6.1 0.00 0.00 0.00 96 1009.8
20260505073037 68 158 3.5 7.0 0.00 0.00 0.00 96 1010.0
20260505071531 69 160 3.5 7.0 0.00 0.00 0.00 95 1010.0
20260505070029 69 168 5.2 9.6 0.00 0.00 0.00 95 1010.1
20260505064526 69 175 5.2 9.6 0.00 0.00 0.00 95 1010.3
20260505063026 68 176 4.3 10.4 0.00 0.00 0.00 95 1010.7
20260505061523 69 169 4.3 8.7 0.00 0.00 0.00 94 1010.6
20260505060029 68 165 4.3 7.8 0.00 0.00 0.00 95 1010.8
20260505054531 68 177 4.3 7.0 0.00 0.00 0.00 94 1011.0
20260505053017 68 192 2.6 6.1 0.00 0.00 0.00 94 1011.1
20260505051515 69 175 2.6 6.1 0.00 0.00 0.00 93 1011.3